Time,TemperatureF,DewpointF,PressureIn,WindDirection,WindDirectionDegrees,WindSpeedMPH,WindSpeedGustMPH,Humidity,HourlyPrecipIn,Conditions,Clouds,dailyrainin,SoftwareType,DateUTC
2013-03-26 00:02:00,2.0,-2.0,29.70,SE,138,0.0,3.0,81,0.00,,,0.00,,2013-03-26 08:02:00,
2013-03-26 00:12:00,2.0,-2.0,29.70,SE,138,0.0,3.0,81,0.00,,,0.00,,2013-03-26 08:12:00,
2013-03-26 00:22:00,2.0,-2.0,29.71,ESE,106,0.0,2.0,82,0.00,,,0.00,,2013-03-26 08:22:00,
2013-03-26 00:32:00,1.0,-3.0,29.71,East,95,0.0,4.0,82,0.00,,,0.00,,2013-03-26 08:32:00,
2013-03-26 00:42:00,1.0,-3.0,29.71,East,95,0.0,4.0,82,0.00,,,0.00,,2013-03-26 08:42:00,
2013-03-26 00:51:00,1.0,-3.0,29.71,East,95,0.0,4.0,82,0.00,,,0.00,,2013-03-26 08:51:00,
2013-03-26 01:01:00,1.0,-3.0,29.73,SSW,196,0.0,0.0,81,0.00,,,0.00,,2013-03-26 09:01:00,
2013-03-26 01:12:00,1.0,-3.0,29.73,SSW,196,0.0,0.0,81,0.00,,,0.00,,2013-03-26 09:12:00,
2013-03-26 01:22:00,0.0,-4.0,29.74,SSW,195,0.0,1.0,81,0.00,,,0.00,,2013-03-26 09:22:00,
2013-03-26 01:32:00,0.0,-4.0,29.75,SSW,195,0.0,3.0,81,0.00,,,0.00,,2013-03-26 09:32:00,
2013-03-26 01:42:00,0.0,-4.0,29.75,SSW,195,0.0,3.0,81,0.00,,,0.00,,2013-03-26 09:42:00,
2013-03-26 01:52:00,0.0,-5.0,29.75,SE,133,0.0,4.0,80,0.00,,,0.00,,2013-03-26 09:52:00,
2013-03-26 02:02:00,0.0,-5.0,29.75,SE,128,0.0,1.0,80,0.00,,,0.00,,2013-03-26 10:02:00,
2013-03-26 02:12:00,0.0,-5.0,29.75,SE,128,0.0,1.0,80,0.00,,,0.00,,2013-03-26 10:12:00,
2013-03-26 02:22:00,0.0,-5.0,29.76,SW,232,0.0,3.0,80,0.00,,,0.00,,2013-03-26 10:22:00,
2013-03-26 02:32:00,0.0,-5.0,29.77,SSW,211,0.0,2.0,80,0.00,,,0.00,,2013-03-26 10:32:00,
2013-03-26 02:42:00,0.0,-5.0,29.77,SSW,211,0.0,2.0,80,0.00,,,0.00,,2013-03-26 10:42:00,
2013-03-26 02:52:00,0.0,-5.0,29.77,SSW,211,0.0,1.0,80,0.00,,,0.00,,2013-03-26 10:52:00,
2013-03-26 03:02:00,0.0,-4.0,29.78,South,190,0.0,1.0,81,0.00,,,0.00,,2013-03-26 11:02:00,
2013-03-26 03:12:00,0.0,-4.0,29.78,South,190,0.0,1.0,81,0.00,,,0.00,,2013-03-26 11:12:00,
2013-03-26 03:21:00,0.0,-4.0,29.79,South,177,0.0,3.0,81,0.00,,,0.00,,2013-03-26 11:21:00,
2013-03-26 03:32:00,-1.0,-5.0,29.79,South,177,0.0,0.0,81,0.00,,,0.00,,2013-03-26 11:32:00,
2013-03-26 03:42:00,-1.0,-5.0,29.79,South,177,0.0,0.0,81,0.00,,,0.00,,2013-03-26 11:42:00,
2013-03-26 03:52:00,0.0,-4.0,29.80,SE,133,0.0,1.0,81,0.00,,,0.00,,2013-03-26 11:52:00,
2013-03-26 04:02:00,0.0,-4.0,29.80,SE,133,0.0,1.0,81,0.00,,,0.00,,2013-03-26 12:02:00,
2013-03-26 04:12:00,0.0,-4.0,29.80,ESE,107,0.0,2.0,81,0.00,,,0.00,,2013-03-26 12:12:00,
2013-03-26 04:21:00,0.0,-5.0,29.81,ESE,106,0.0,2.0,80,0.00,,,0.00,,2013-03-26 12:21:00,
2013-03-26 04:32:00,0.0,-4.0,29.81,ESE,117,0.0,1.0,83,0.00,,,0.00,,2013-03-26 12:32:00,
2013-03-26 04:42:00,0.0,-4.0,29.81,ESE,117,0.0,1.0,83,0.00,,,0.00,,2013-03-26 12:42:00,
2013-03-26 04:52:00,0.0,-4.0,29.82,ENE,71,0.0,1.0,83,0.00,,,0.00,,2013-03-26 12:52:00,
2013-03-26 05:02:00,-1.0,-5.0,29.82,SSE,156,0.0,1.0,82,0.00,,,0.00,,2013-03-26 13:02:00,
2013-03-26 05:12:00,-1.0,-5.0,29.82,SSE,156,0.0,1.0,82,0.00,,,0.00,,2013-03-26 13:12:00,
2013-03-26 05:22:00,-1.0,-5.0,29.82,SSE,161,0.0,1.0,81,0.00,,,0.00,,2013-03-26 13:22:00,
2013-03-26 05:32:00,-1.0,-5.0,29.83,SE,139,0.0,1.0,81,0.00,,,0.00,,2013-03-26 13:32:00,
2013-03-26 05:42:00,-1.0,-5.0,29.83,SE,139,0.0,1.0,81,0.00,,,0.00,,2013-03-26 13:42:00,
2013-03-26 05:52:00,-2.0,-6.0,29.83,NNE,22,0.0,5.0,81,0.00,,,0.00,,2013-03-26 13:52:00,
2013-03-26 06:02:00,-2.0,-7.0,29.84,North,355,0.0,6.0,80,0.00,,,0.00,,2013-03-26 14:02:00,
2013-03-26 06:11:00,-2.0,-7.0,29.84,North,355,0.0,6.0,80,0.00,,,0.00,,2013-03-26 14:11:00,
2013-03-26 06:22:00,-2.0,-7.0,29.84,South,182,0.0,2.0,80,0.00,,,0.00,,2013-03-26 14:22:00,
2013-03-26 06:32:00,-2.0,-6.0,29.85,SSE,163,0.0,1.0,81,0.00,,,0.00,,2013-03-26 14:32:00,
2013-03-26 06:42:00,-2.0,-6.0,29.85,SSE,163,0.0,1.0,81,0.00,,,0.00,,2013-03-26 14:42:00,
2013-03-26 06:52:00,-2.0,-6.0,29.86,South,190,0.0,1.0,81,0.00,,,0.00,,2013-03-26 14:52:00,
2013-03-26 07:02:00,-2.0,-7.0,29.87,ESE,123,0.0,1.0,80,0.00,,,0.00,,2013-03-26 15:02:00,
2013-03-26 07:12:00,-2.0,-7.0,29.87,ESE,123,0.0,1.0,80,0.00,,,0.00,,2013-03-26 15:12:00,
2013-03-26 07:22:00,-2.0,-7.0,29.88,South,190,0.0,0.0,80,0.00,,,0.00,,2013-03-26 15:22:00,
2013-03-26 07:33:00,-3.0,-8.0,29.88,South,191,0.0,1.0,80,0.00,,,0.00,,2013-03-26 15:33:00,
2013-03-26 07:42:00,-3.0,-8.0,29.88,South,191,0.0,1.0,80,0.00,,,0.00,,2013-03-26 15:42:00,
2013-03-26 07:52:00,-3.0,-7.0,29.89,SSW,202,0.0,1.0,81,0.00,,,0.00,,2013-03-26 15:52:00,
2013-03-26 08:02:00,-3.0,-8.0,29.89,SSW,203,0.0,2.0,80,0.00,,,0.00,,2013-03-26 16:02:00,
2013-03-26 08:12:00,-3.0,-8.0,29.89,SSW,203,0.0,2.0,80,0.00,,,0.00,,2013-03-26 16:12:00,
2013-03-26 08:22:00,-3.0,-7.0,29.90,ESE,120,0.0,2.0,81,0.00,,,0.00,,2013-03-26 16:22:00,
2013-03-26 08:32:00,-3.0,-7.0,29.90,East,95,0.0,3.0,81,0.00,,,0.00,,2013-03-26 16:32:00,
2013-03-26 08:42:00,-3.0,-7.0,29.90,East,95,0.0,3.0,81,0.00,,,0.00,,2013-03-26 16:42:00,
2013-03-26 08:53:00,-3.0,-7.0,29.91,East,95,0.0,1.0,81,0.00,,,0.00,,2013-03-26 16:53:00,
2013-03-26 09:02:00,-3.0,-8.0,29.91,ESE,103,0.0,2.0,80,0.00,,,0.00,,2013-03-26 17:02:00,
2013-03-26 09:12:00,-3.0,-8.0,29.91,ESE,103,0.0,2.0,80,0.00,,,0.00,,2013-03-26 17:12:00,
2013-03-26 09:22:00,-3.0,-8.0,29.91,ESE,103,0.0,2.0,79,0.00,,,0.00,,2013-03-26 17:22:00,
2013-03-26 09:32:00,-3.0,-8.0,29.92,East,87,0.0,3.0,79,0.00,,,0.00,,2013-03-26 17:32:00,
2013-03-26 09:42:00,-3.0,-8.0,29.92,East,87,0.0,3.0,79,0.00,,,0.00,,2013-03-26 17:42:00,
2013-03-26 09:52:00,-2.0,-7.0,29.92,SE,134,0.0,5.0,78,0.00,,,0.00,,2013-03-26 17:52:00,
2013-03-26 10:02:00,-1.0,-6.0,29.93,ESE,105,0.0,2.0,77,0.00,,,0.00,,2013-03-26 18:02:00,
2013-03-26 10:12:00,-1.0,-6.0,29.93,ESE,105,0.0,2.0,77,0.00,,,0.00,,2013-03-26 18:12:00,
2013-03-26 10:22:00,-1.0,-7.0,29.93,SSE,153,0.0,1.0,75,0.00,,,0.00,,2013-03-26 18:22:00,
2013-03-26 10:33:00,-1.0,-7.0,29.94,NE,42,0.0,12.0,75,0.00,,,0.00,,2013-03-26 18:33:00,
2013-03-26 10:42:00,-1.0,-7.0,29.94,NE,42,0.0,12.0,75,0.00,,,0.00,,2013-03-26 18:42:00,
2013-03-26 10:52:00,0.0,-6.0,29.95,SE,144,0.0,3.0,74,0.00,,,0.00,,2013-03-26 18:52:00,
2013-03-26 11:02:00,1.0,-6.0,29.95,ESE,123,0.0,6.0,71,0.00,,,0.00,,2013-03-26 19:02:00,
2013-03-26 11:12:00,1.0,-6.0,29.95,ESE,123,0.0,6.0,71,0.00,,,0.00,,2013-03-26 19:12:00,
2013-03-26 11:22:00,2.0,-6.0,29.96,SSE,160,0.0,8.0,69,0.00,,,0.00,,2013-03-26 19:22:00,
2013-03-26 11:32:00,2.0,-6.0,29.97,WSW,258,0.0,4.0,67,0.00,,,0.00,,2013-03-26 19:32:00,
2013-03-26 11:42:00,2.0,-6.0,29.97,WSW,258,0.0,4.0,67,0.00,,,0.00,,2013-03-26 19:42:00,
2013-03-26 11:52:00,1.0,-7.0,29.97,South,186,0.0,4.0,69,0.00,,,0.00,,2013-03-26 19:52:00,
2013-03-26 12:02:00,2.0,-6.0,29.98,NNE,20,1.0,7.0,68,0.00,,,0.00,,2013-03-26 20:02:00,
2013-03-26 12:12:00,2.0,-6.0,29.98,NNE,20,1.0,7.0,68,0.00,,,0.00,,2013-03-26 20:12:00,
2013-03-26 12:22:00,3.0,-6.0,29.98,South,189,0.0,3.0,66,0.00,,,0.00,,2013-03-26 20:22:00,
2013-03-26 12:32:00,3.0,-6.0,29.98,NE,41,0.0,9.0,64,0.00,,,0.00,,2013-03-26 20:32:00,
2013-03-26 12:42:00,3.0,-6.0,29.98,NE,41,0.0,9.0,64,0.00,,,0.00,,2013-03-26 20:42:00,
2013-03-26 12:52:00,2.0,-7.0,29.99,South,190,0.0,8.0,66,0.00,,,0.00,,2013-03-26 20:52:00,
2013-03-26 13:02:00,1.0,-8.0,29.99,SE,140,0.0,2.0,66,0.00,,,0.00,,2013-03-26 21:02:00,
2013-03-26 13:12:00,1.0,-8.0,29.99,SE,140,0.0,2.0,66,0.00,,,0.00,,2013-03-26 21:12:00,
2013-03-26 13:22:00,1.0,-8.0,29.99,SE,140,0.0,2.0,66,0.00,,,0.00,,2013-03-26 21:22:00,
2013-03-26 13:32:00,1.0,-8.0,29.99,SE,140,0.0,2.0,66,0.00,,,0.00,,2013-03-26 21:32:00,
2013-03-26 14:22:00,3.0,-7.0,30.00,East,92,2.0,11.0,62,0.00,,,0.00,,2013-03-26 22:22:00,
2013-03-26 14:33:00,3.0,-7.0,30.00,East,92,2.0,11.0,62,0.00,,,0.00,,2013-03-26 22:33:00,
2013-03-26 14:42:00,3.0,-7.0,30.00,East,92,2.0,11.0,62,0.00,,,0.00,,2013-03-26 22:42:00,
2013-03-26 14:51:00,3.0,-7.0,30.00,East,92,2.0,11.0,62,0.00,,,0.00,,2013-03-26 22:51:00,
2013-03-26 15:22:00,3.0,-6.0,30.02,NNW,342,0.0,5.0,64,0.00,,,0.00,,2013-03-26 23:22:00,
2013-03-26 15:31:00,3.0,-6.0,30.02,WSW,246,0.0,4.0,64,0.00,,,0.00,,2013-03-26 23:31:00,
2013-03-26 15:42:00,3.0,-6.0,30.02,WSW,246,0.0,4.0,64,0.00,,,0.00,,2013-03-26 23:42:00,
2013-03-26 15:51:00,3.0,-6.0,30.03,South,175,0.0,6.0,64,0.00,,,0.00,,2013-03-26 23:51:00,
2013-03-26 16:02:00,4.0,-6.0,30.03,ENE,67,0.0,3.0,63,0.00,,,0.00,,2013-03-27 00:02:00,
2013-03-26 16:12:00,4.0,-6.0,30.03,ENE,67,0.0,3.0,63,0.00,,,0.00,,2013-03-27 00:12:00,
2013-03-26 16:22:00,5.0,-7.0,30.03,East,98,3.0,11.0,58,0.00,,,0.00,,2013-03-27 00:22:00,
2013-03-26 16:32:00,4.0,-8.0,30.03,SSW,197,0.0,5.0,57,0.00,,,0.00,,2013-03-27 00:32:00,
2013-03-26 16:42:00,4.0,-8.0,30.03,SSW,197,0.0,5.0,57,0.00,,,0.00,,2013-03-27 00:42:00,
2013-03-26 16:52:00,5.0,-7.0,30.03,East,90,0.0,5.0,57,0.00,,,0.00,,2013-03-27 00:52:00,
2013-03-26 17:02:00,5.0,-7.0,30.03,South,175,0.0,4.0,57,0.00,,,0.00,,2013-03-27 01:02:00,
2013-03-26 17:11:00,5.0,-7.0,30.03,South,175,0.0,4.0,57,0.00,,,0.00,,2013-03-27 01:11:00,
2013-03-26 17:22:00,4.0,-8.0,30.03,WSW,241,0.0,9.0,56,0.00,,,0.00,,2013-03-27 01:22:00,
2013-03-26 17:32:00,3.0,-9.0,30.03,SSE,160,1.0,7.0,57,0.00,,,0.00,,2013-03-27 01:32:00,
2013-03-26 17:42:00,3.0,-9.0,30.03,SSE,160,1.0,7.0,57,0.00,,,0.00,,2013-03-27 01:42:00,
2013-03-26 17:52:00,3.0,-9.0,30.03,SW,218,3.0,17.0,55,0.00,,,0.00,,2013-03-27 01:52:00,
2013-03-26 18:02:00,3.0,-10.0,30.03,South,179,1.0,8.0,54,0.00,,,0.00,,2013-03-27 02:02:00,
2013-03-26 18:12:00,3.0,-10.0,30.03,South,179,1.0,8.0,54,0.00,,,0.00,,2013-03-27 02:12:00,
2013-03-26 18:22:00,3.0,-9.0,30.03,East,99,0.0,3.0,57,0.00,,,0.00,,2013-03-27 02:22:00,
2013-03-26 18:32:00,3.0,-9.0,30.04,NW,307,0.0,3.0,57,0.00,,,0.00,,2013-03-27 02:32:00,
2013-03-26 18:42:00,3.0,-9.0,30.04,NW,307,0.0,3.0,57,0.00,,,0.00,,2013-03-27 02:42:00,
2013-03-26 18:52:00,2.0,-10.0,30.04,NNE,32,0.0,3.0,56,0.00,,,0.00,,2013-03-27 02:52:00,
2013-03-26 19:02:00,2.0,-10.0,30.04,NNE,29,0.0,4.0,57,0.00,,,0.00,,2013-03-27 03:02:00,
2013-03-26 19:11:00,2.0,-10.0,30.04,NNE,29,0.0,4.0,57,0.00,,,0.00,,2013-03-27 03:11:00,
2013-03-26 19:22:00,2.0,-9.0,30.04,ESE,109,0.0,1.0,58,0.00,,,0.00,,2013-03-27 03:22:00,
2013-03-26 19:32:00,1.0,-10.0,30.05,SW,225,0.0,0.0,60,0.00,,,0.00,,2013-03-27 03:32:00,
2013-03-26 19:42:00,1.0,-10.0,30.05,SW,225,0.0,0.0,60,0.00,,,0.00,,2013-03-27 03:42:00,
2013-03-26 19:52:00,1.0,-9.0,30.05,North,355,0.0,1.0,63,0.00,,,0.00,,2013-03-27 03:52:00,
2013-03-26 20:02:00,0.0,-10.0,30.06,North,355,0.0,1.0,61,0.00,,,0.00,,2013-03-27 04:02:00,
2013-03-26 20:12:00,0.0,-10.0,30.06,North,355,0.0,1.0,61,0.00,,,0.00,,2013-03-27 04:12:00,
2013-03-26 20:22:00,0.0,-9.0,30.07,NNE,17,0.0,1.0,64,0.00,,,0.00,,2013-03-27 04:22:00,
2013-03-26 20:32:00,0.0,-9.0,30.08,NNE,17,0.0,0.0,66,0.00,,,0.00,,2013-03-27 04:32:00,
2013-03-26 20:42:00,0.0,-9.0,30.08,NNE,17,0.0,0.0,66,0.00,,,0.00,,2013-03-27 04:42:00,
2013-03-26 20:52:00,-1.0,-9.0,30.09,NNE,17,0.0,0.0,67,0.00,,,0.00,,2013-03-27 04:52:00,
2013-03-26 21:02:00,-2.0,-10.0,30.09,NNE,17,0.0,1.0,69,0.00,,,0.00,,2013-03-27 05:02:00,
2013-03-26 21:12:00,-2.0,-10.0,30.09,NNE,17,0.0,1.0,69,0.00,,,0.00,,2013-03-27 05:12:00,
2013-03-26 21:22:00,-2.0,-9.0,30.10,NNE,17,0.0,0.0,70,0.00,,,0.00,,2013-03-27 05:22:00,
2013-03-26 21:32:00,-2.0,-9.0,30.11,NNE,17,0.0,0.0,70,0.00,,,0.00,,2013-03-27 05:32:00,
2013-03-26 21:42:00,-2.0,-9.0,30.11,NNE,17,0.0,0.0,70,0.00,,,0.00,,2013-03-27 05:42:00,
2013-03-26 21:52:00,-3.0,-11.0,30.11,NNE,17,0.0,0.0,69,0.00,,,0.00,,2013-03-27 05:52:00,
2013-03-26 22:02:00,-3.0,-11.0,30.11,NNE,17,0.0,0.0,68,0.00,,,0.00,,2013-03-27 06:02:00,
2013-03-26 22:11:00,-3.0,-11.0,30.11,NNE,17,0.0,0.0,68,0.00,,,0.00,,2013-03-27 06:11:00,
2013-03-26 22:22:00,-3.0,-11.0,30.12,NNE,17,0.0,0.0,69,0.00,,,0.00,,2013-03-27 06:22:00,
2013-03-26 22:32:00,-3.0,-11.0,30.12,NNE,17,0.0,0.0,68,0.00,,,0.00,,2013-03-27 06:32:00,
2013-03-26 22:42:00,-3.0,-11.0,30.12,NNE,17,0.0,0.0,68,0.00,,,0.00,,2013-03-27 06:42:00,
2013-03-26 22:52:00,-3.0,-11.0,30.12,NNE,17,0.0,0.0,68,0.00,,,0.00,,2013-03-27 06:52:00,
2013-03-26 23:02:00,-3.0,-11.0,30.13,NNE,17,0.0,0.0,68,0.00,,,0.00,,2013-03-27 07:02:00,
2013-03-26 23:12:00,-3.0,-11.0,30.13,NNE,17,0.0,0.0,68,0.00,,,0.00,,2013-03-27 07:12:00,
2013-03-26 23:22:00,-4.0,-12.0,30.13,NNE,17,0.0,0.0,68,0.00,,,0.00,,2013-03-27 07:22:00,
2013-03-26 23:32:00,-4.0,-11.0,30.14,NNE,17,0.0,0.0,70,0.00,,,0.00,,2013-03-27 07:32:00,
2013-03-26 23:42:00,-4.0,-11.0,30.14,NNE,17,0.0,0.0,70,0.00,,,0.00,,2013-03-27 07:42:00,
2013-03-26 23:53:00,-5.0,-12.0,30.14,NNE,17,0.0,0.0,71,0.00,,,0.00,,2013-03-27 07:53:00,